Weather Roundup
Issued by NWS Springfield, MO

Home | Current Version | Previous Version | Text Only | Print | Product List | Glossary On
Versions: 1 2 3 4 5 6 7 8 9 10 11 12 13 14 15 16 17 18 19 20 21 22 23 24 25 26 27 28 29 30 31 32 33 34 35 36 37 38 39 40 41 42 43 44 45 46 47 48 49 50
000
NZUS99 KSGF 240107
HRRSGF

HOURLY WEATHER
NATIONAL WEATHER SERVICE SPRINGFIELD MO
800 PM CDT MON OCT 23 2017

......SGF CWA......

CITY           SKY/WX    TMP DP  RH WIND       PRES   REMARKS
SPRINGFIELD    CLEAR     59  36  42 NW8G18    30.02R
JOPLIN         PTCLDY    58  37  45 W9        30.08R
WEST PLAINS    CLEAR     60  42  51 NW10G22   29.97R
ROLLA          PTCLDY    54  41  61 W8        29.93R
OSAGE BEACH    CLEAR     59  41  51 NW6       29.96R
BRANSON        CLOUDY    61  39  44 NW12G20   30.03R

......SURROUNDING SGF CWA......

CITY           SKY/WX    TMP DP  RH WIND       PRES   REMARKS
CHANUTE        CLEAR     58  34  40 NW8       30.11R
PARSONS        CLEAR     52  37  56 W5        30.13R
COFFEYVILLE    CLEAR     57  37  47 NW7       30.12R
EMPORIA        PTCLDY    58  30  34 NW12      30.13R
GROVE OK       CLOUDY    63  36  36 NW9       30.11R
ROGERS AR      PTCLDY    61  35  37 NW15      30.09R
SILOAM SPRINGS CLOUDY    63  35  35 NW22      30.11R
HARRISON AR    PTCLDY    60  43  53 NW10G18   30.02R
NEAR YELLVILLE CLEAR     60  44  55 W7        30.00R

......KANSAS AND MISSOURI......

CITY           SKY/WX    TMP DP  RH WIND       PRES   REMARKS
KANSAS CTY INT CLEAR     58  32  37 NW14G30   30.03R
DOWNTOWN KC    PTCLDY    61  32  33 NW14G28   30.03R
COLUMBIA       MOCLDY    57  42  57 NW9       29.91S
SEDALIA        CLOUDY    58  40  51 NW10      29.97R
ST JOSEPH      LGT RAIN  57  34  41 N17G30    30.05R
ST LOUIS       CLOUDY    59  45  59 NW8       29.85R
SPIRIT OF STL  CLOUDY    55  46  71 SW6       29.85R
KIRKSVILLE     PTCLDY    54  37  52 NW20G26   29.91R
WICHITA        CLEAR     54  31  41 NW9       30.19R
TOPEKA         CLEAR     58  32  37 NW17G23   30.09R
OLATHE         PTCLDY    58  30  34 NW17G25   30.05R

......TENNESSEE......

CITY           SKY/WX    TMP DP  RH WIND       PRES   REMARKS
MEMPHIS        CLEAR     62  45  53 SW9       29.92R
NASHVILLE      PTCLDY    54  48  80 SW8       29.92R

......ARKANSAS.......

CITY           SKY/WX    TMP DP  RH WIND       PRES   REMARKS
FAYETTEVILLE   PTCLDY    61  45  55 NW13G18   30.08R
FT SMITH       CLEAR     60  48  64 W7        30.06R
LITTLE ROCK    PTCLDY    69  45  41 W10       29.97R

......OKLAHOMA.......

CITY           SKY/WX    TMP DP  RH WIND       PRES   REMARKS
TULSA          CLOUDY    64  32  30 NW16      30.13R
PONCA CITY     CLEAR     58  34  40 NW5       30.19R
MCALESTER      PTCLDY    56  51  84 NW5       30.12R
OKLAHOMA CITY  MOCLDY    63  35  35 N13       30.20R

......IOWA............

CITY           SKY/WX    TMP DP  RH WIND       PRES   REMARKS
DES MOINES     CLOUDY    50  33  52 NW14G28   29.94R
QUAD CITIES    CLOUDY    54  45  71 W14       29.75S

......ILLINOIS........

CITY           SKY/WX    TMP DP  RH WIND       PRES   REMARKS
QUINCY         CLOUDY    56  43  61 W16       29.83R
CHICAGO        CLOUDY    52  45  77 SW7       29.65S




USA.gov is the U.S. government's official web portal to all federal, state and local government web resources and services.